Location: Unspecified
(50.0642°N, 0.0000°E)
Time: 07:32:30
(UTC+00:00)

CZ-4 DEB - Visible Passes

Search period start: 04 April 2026 00:00
Search period end: 14 April 2026 00:00
Orbit: 496 x 558 km, 97.6° (Epoch: 28 March)

Date Brightness Start Highest point End Pass type
(mag) Time Alt. Az. Time Alt. Az. Time Alt. Az.
4 Apr ? 20:08:25 15° SSE 20:11:45 88° W 20:15:45 10° NNW visible
5 Apr ? 19:56:50 13° SSE 20:00:22 70° ENE 20:04:20 10° N visible
5 Apr ? 21:33:13 10° WSW 21:35:06 13° W 21:36:58 10° WNW visible
6 Apr ? 19:45:13 11° SSE 19:49:01 53° ENE 19:52:52 10° N visible
6 Apr ? 21:20:58 10° SW 21:23:35 17° W 21:26:11 10° NW visible
7 Apr ? 19:33:55 10° SE 19:37:39 40° ENE 19:41:22 10° N visible
7 Apr ? 21:08:59 10° SW 21:12:04 21° W 21:15:09 10° NW visible
8 Apr ? 19:22:46 10° SE 19:26:18 31° ENE 19:29:49 10° N visible
8 Apr ? 20:57:14 10° SSW 21:00:35 27° W 21:04:00 10° NW visible
9 Apr ? 19:11:43 10° ESE 19:14:58 25° ENE 19:18:12 10° N visible
9 Apr ? 20:45:37 11° SSW 20:49:06 35° W 20:52:45 10° NNW visible
10 Apr ? 20:34:01 11° S 20:37:38 46° W 20:41:27 10° NNW visible
11 Apr ? 20:22:23 11° S 20:26:11 62° WSW 20:30:04 10° NNW visible
12 Apr ? 20:10:46 10° SSE 20:14:44 83° WSW 20:18:39 10° NNW visible
13 Apr ? 19:59:21 10° SSE 20:03:17 75° ENE 20:07:11 10° N visible
13 Apr ? 21:36:33 10° WSW 21:38:02 12° W 21:39:31 10° WNW visible
